GFSFLT2_prec_cloud_195.txt.gz
Cloud_Cover
0 0 0 0 0 0 0 0 0 0 0 0 0 0 0 3 26 42 100 95 46 28 26 62 93 80 100 77 100 100 10 97
0 0 0 2 5 5 5 5 3 0 0 0 0 0 0 0 0 2 5 26 96 74 77 70 17 26 26 98 100 100 100 100
0 0 0 5 5 5 5 5 5 5 5 0 0 0 0 0 0 0 0 0 4 2 5 4 46 50 52 90 99 100 100 86
1 1 0 1 5 55 52 20 30 5 5 4 0 0 0 0 0 3 0 0 5 0 0 0 0 26 100 100 99 95 100 78
0 2 4 0 1 0 2 3 1 1 0 0 4 5 5 3 0 0 0 0 6 87 3 5 1 2 5 90 100 100 100 86
0 0 0 0 0 0 1 5 5 5 11 5 2 0 0 2 2 2 5 0 0 7 75 5 1 0 2 5 54 89 100 100
0 0 0 0 0 0 0 0 2 5 5 5 6 5 4 0 0 0 1 2 1 1 5 5 1 0 0 0 5 97 100 100
0 0 0 0 0 0 0 0 0 0 0 0 3 5 5 5 4 0 0 0 5 5 5 5 15 5 5 0 8 16 100 100
5 5 5 23 5 5 1 0 0 0 0 0 0 0 2 3 3 0 0 0 0 5 5 6 94 99 17 8 7 8 87 100
50 82 73 23 5 5 1 0 0 0 0 0 0 0 0 0 0 0 0 0 2 0 15 98 48 83 100 26 4 11 15 64
20 18 6 5 0 0 0 0 0 0 0 0 0 0 0 0 0 3 0 0 1 0 2 99 98 24 22 96 74 5 5 5
18 5 0 0 0 0 0 5 0 0 0 0 0 0 0 0 5 5 5 6 1 0 5 0 70 91 6 97 100 83 24 10
0 0 0 2 4 5 5 4 0 0 0 0 0 0 0 0 0 0 0 7 26 5 0 0 5 5 4 17 26 100 33 73
5 5 5 5 5 5 2 0 0 0 0 0 0 0 0 0 0 0 0 0 0 1 1 0 1 19 65 49 4 10 96 98
5 5 5 5 5 3 0 0 0 0 0 0 0 0 0 0 0 0 0 0 0 0 0 0 0 0 32 94 100 98 100 100
82 100 65 5 5 0 0 0 0 0 0 0 1 0 28 29 14 19 8 90 4 0 0 0 0 2 0 100 33 100 100 100
79 70 8 2 0 0 0 0 0 0 0 1 6 3 15 40 41 26 94 40 58 5 2 0 0 0 14 100 100 100 100 100
40 7 1 0 0 0 0 0 0 0 0 4 9 52 5 29 39 76 93 94 100 100 31 0 0 0 4 16 100 100 100 100
5 5 5 0 0 0 0 0 0 14 2 51 4 65 81 71 81 89 100 100 100 100 97 0 0 0 0 7 100 100 100 100

GFSFLT2_prec_cloud_198.txt.gz
Cloud_Cover
0 0 0 0 0 1 5 0 6 14 23 7 0 3 0 0 0 5 12 1 0 79 99 44 34 93 100 100 63 100 100 13
0 0 0 0 0 2 2 3 4 51 0 70 4 14 0 0 0 0 1 4 5 31 41 15 55 16 63 100 100 98 46 92
0 1 5 4 0 0 4 4 6 46 77 0 0 0 0 0 0 3 18 0 0 0 1 5 11 96 36 5 29 93 23 33
47 5 3 0 1 4 5 88 5 0 4 0 0 0 0 0 0 0 0 0 0 0 0 0 0 1 13 100 97 49 42 72
25 5 5 5 5 5 9 5 5 4 68 3 0 0 0 0 0 0 0 3 0 0 0 3 1 4 0 0 13 99 99 100
37 61 22 5 5 5 2 5 6 6 13 29 4 1 0 0 0 0 0 0 2 0 0 0 6 12 3 5 1 5 45 100
5 5 5 5 5 5 5 5 5 5 4 5 5 5 2 0 0 0 1 0 0 2 2 5 21 13 36 29 22 16 1 5
5 5 5 5 4 1 0 0 0 0 1 0 2 0 4 4 0 0 0 0 0 0 0 0 6 64 60 66 65 54 45 8
5 5 4 0 5 1 0 0 0 0 2 0 0 0 0 0 0 0 0 0 0 0 0 0 5 89 51 57 70 99 82 86
5 4 0 5 5 5 4 2 5 5 0 0 0 0 0 0 0 0 0 0 0 0 0 0 1 7 99 97 84 60 100 100
5 5 5 5 7 32 7 9 40 4 0 0 0 0 0 0 0 0 0 0 0 0 0 0 0 0 92 100 98 93 90 100
95 25 54 100 100 99 90 18 4 0 0 0 0 0 0 1 0 0 0 0 0 0 0 0 0 0 56 100 83 99 83 93
13 13 14 63 9 5 1 0 3 5 4 0 0 0 0 0 0 0 0 0 0 0 0 0 0 0 2 96 100 100 80 7
5 4 0 2 0 3 5 5 1 0 0 0 0 0 0 0 0 0 0 0 0 0 0 0 0 0 0 3 87 91 99 62
0 0 0 0 0 5 4 0 0 0 0 0 0 0 1 2 0 8 9 2 34 61 13 5 5 0 0 0 1 8 29 100
0 0 0 0 3 5 5 4 0 0 0 0 0 5 34 47 53 52 39 29 67 100 92 44 7 5 0 0 0 0 46 28
5 16 5 5 9 9 5 2 0 0 4 14 47 98 46 38 60 97 91 79 100 100 100 100 99 100 14 0 0 0 1 5
15 42 16 5 5 5 5 2 16 57 88 15 79 100 100 46 98 100 97 93 89 87 97 82 90 29 34 70 0 0 0 0
40 17 8 41 8 59 58 26 38 80 100 100 80 83 86 27 53 100 100 100 98 100 100 100 100 60 64 44 0 0 0 0

GFSFLT2_prec_cloud_201.txt.gz
Cloud_Cover
0 0 1 25 13 53 97 6 38 100 10 5 1 0 0 0 0 0 0 14 6 96 100 100 100 100 100 68 8 70 100 100
0 0 0 6 21 26 43 100 46 100 64 5 2 0 0 0 0 0 0 0 0 7 48 58 76 100 100 100 100 91 87 99
0 0 48 3 0 4 61 49 96 81 85 100 18 0 0 0 0 0 0 4 4 0 0 0 8 32 31 14 34 100 100 100
79 69 6 1 9 48 99 98 93 18 78 2 0 0 0 0 0 0 0 0 0 0 0 0 2 10 26 4 5 9 20 100
26 82 5 5 5 6 47 100 57 38 73 5 2 0 0 0 0 0 0 0 0 0 0 3 27 27 26 47 16 17 19 18
100 100 81 79 17 5 5 23 93 99 89 14 1 0 0 0 0 0 0 0 0 0 4 35 42 71 87 54 62 11 28 36
5 97 100 58 12 5 5 5 5 5 100 97 28 0 0 0 0 0 0 0 0 0 0 14 29 58 100 100 100 75 42 27
0 1 5 5 5 5 2 5 5 5 3 5 2 0 0 0 0 0 0 0 0 0 0 0 0 12 5 59 99 100 100 98
0 5 4 5 8 3 4 36 5 5 5 0 2 0 0 0 0 0 0 0 0 0 0 0 0 45 79 21 1 31 100 100
0 5 3 5 1 5 5 5 5 0 4 0 0 0 0 0 0 2 0 0 0 0 0 0 0 0 0 91 60 6 72 46
4 0 2 4 17 0 5 0 5 4 0 0 3 0 0 8 19 0 0 0 0 0 0 0 0 0 0 0 41 97 5 66
5 5 4 81 36 0 4 0 31 5 5 5 5 2 0 1 2 0 0 0 0 0 0 0 0 0 0 0 0 4 89 12
5 28 10 32 34 5 5 25 5 15 7 3 0 0 0 0 0 0 0 0 0 0 0 1 1 0 0 0 0 0 27 52
47 10 22 96 5 5 5 10 5 2 0 0 0 0 0 0 0 0 0 0 5 5 2 9 1 9 0 0 0 0 0 28
5 1 5 5 5 16 5 0 0 2 4 0 0 0 0 0 4 0 0 0 0 75 100 58 17 96 94 85 1 0 0 0
21 5 21 4 5 3 2 4 5 5 4 0 1 0 3 0 1 79 97 57 17 52 87 71 8 56 43 100 100 10 26 0
1 7 2 35 35 2 2 5 5 5 7 2 11 87 93 12 23 22 38 46 82 93 66 72 54 63 14 100 100 93 5 0
80 70 0 4 0 5 39 24 18 56 84 8 19 23 1 24 48 25 89 88 70 6 56 49 5 82 2 87 100 100 50 3
3 5 5 5 88 100 80 100 54 6 1 0 0 27 32 64 96 34 56 83 100 100 100 6 92 0 39 6 80 97 69 17

GFSFLT2_prec_cloud_204.txt.gz
Cloud_Cover
0 0 0 5 2 92 100 100 100 56 100 82 28 0 0 0 0 0 5 84 100 100 100 26 95 100 100 100 100 100 100 100
0 0 0 3 10 3 100 86 48 46 76 100 57 98 0 0 0 0 0 0 0 16 85 100 100 70 15 44 89 84 44 60
4 0 1 0 0 0 80 100 100 96 23 0 2 2 0 0 0 0 0 0 0 0 1 63 99 79 5 5 37 39 44 70
30 70 2 53 20 3 38 7 62 4 87 98 14 14 0 0 0 0 0 0 0 0 0 0 8 100 99 49 28 83 29 14
50 99 100 17 0 0 2 86 100 95 81 96 5 5 2 0 0 0 0 0 0 0 0 0 0 0 0 83 98 15 1 25
100 100 96 17 8 11 73 15 87 13 60 6 36 22 10 0 2 0 0 0 0 0 0 0 0 2 0 0 41 100 96 100
96 84 100 100 56 93 97 27 3 85 96 18 18 78 0 5 0 0 0 0 0 0 0 0 0 0 0 0 1 81 100 98
0 44 96 100 100 92 8 5 0 4 53 82 12 5 17 27 25 3 0 0 0 0 0 0 0 0 0 0 0 26 100 100
0 0 0 2 4 4 2 5 4 5 5 1 87 27 6 1 5 7 27 0 0 0 0 0 0 0 0 0 0 0 0 11
0 0 0 0 1 0 1 0 0 5 4 5 2 5 1 5 0 29 10 0 0 0 0 0 0 0 0 0 0 0 2 2
5 0 0 0 3 5 5 0 6 98 5 1 5 4 0 0 0 0 0 0 0 0 0 0 0 0 0 0 0 0 0 4
21 8 20 31 100 7 2 0 23 8 3 3 1 0 0 0 0 0 0 0 0 0 0 0 0 0 0 0 0 0 0 0
28 6 52 4 54 100 4 3 4 5 2 2 1 4 3 0 0 0 0 0 0 0 2 9 3 13 6 27 21 0 0 0
6 21 71 70 51 5 5 5 5 4 5 5 5 2 0 0 0 0 0 0 0 0 0 4 4 0 0 0 17 73 12 0
12 8 5 5 60 39 7 5 5 4 5 0 0 0 0 15 9 0 0 0 0 0 0 0 0 0 0 0 0 0 2 0
5 4 5 5 5 11 7 5 5 4 0 0 12 5 2 0 0 0 0 0 0 1 0 0 0 0 0 0 0 0 0 0
1 6 4 5 2 0 1 2 3 10 7 0 5 5 0 0 0 0 0 38 0 0 0 1 100 50 0 1 0 2 4 16
21 2 0 53 0 0 0 0 2 3 4 12 5 5 0 0 49 32 0 0 0 0 5 5 4 6 5 1 49 3 1 1
0 0 0 0 37 1 0 12 8 9 100 87 5 5 23 7 9 1 0 52 13 0 1 5 5 5 1 40 86 27 0 0

GFSFLT2_prec_cloud_207.txt.gz
Cloud_Cover
0 0 0 0 1 49 100 96 98 85 97 100 32 25 89 28 0 0 3 7 100 100 99 99 97 48 4 5 31 100 100 98
0 0 0 0 0 30 95 62 76 98 100 100 100 100 27 6 0 0 0 0 2 99 99 91 100 12 83 79 6 7 35 93
68 0 0 0 0 39 100 99 95 13 97 100 100 100 16 5 0 0 0 0 0 0 0 0 45 100 93 100 100 56 44 5
4 22 12 0 10 100 98 56 24 16 95 100 100 100 92 5 5 5 0 0 3 0 0 0 0 0 2 12 84 70 2 0
100 7 47 63 21 7 22 94 99 78 100 100 100 100 100 25 5 0 0 0 0 4 0 0 0 1 16 22 5 33 34 9
36 5 100 98 6 4 0 5 93 25 100 100 100 100 38 28 5 0 0 0 0 0 0 0 0 0 0 4 75 30 40 37
30 5 62 99 93 1 0 70 44 15 12 100 100 48 82 100 100 97 1 0 0 4 5 0 0 0 0 0 5 4 9 1
1 97 16 88 99 100 100 90 73 98 11 4 4 1 43 75 78 5 0 0 0 5 2 0 0 0 0 0 0 0 0 0
5 0 1 0 70 100 100 100 64 0 12 95 5 0 0 3 49 12 3 55 0 0 0 0 0 0 0 0 0 0 0 0
13 0 0 0 0 74 100 100 16 0 0 0 0 0 0 0 0 0 2 5 0 0 0 0 0 0 0 0 0 0 0 0
100 10 0 0 0 0 0 11 0 0 0 0 0 0 0 5 4 5 0 0 0 0 0 0 0 0 0 0 0 0 0 0
100 78 4 0 0 4 0 0 0 2 0 0 1 5 5 5 5 0 0 0 0 0 0 0 0 0 0 0 0 0 0 0
68 38 1 0 5 76 13 1 0 0 5 6 6 14 5 1 0 0 0 0 0 0 0 0 0 0 0 4 55 39 0 0
96 29 3 6 85 100 92 46 27 18 5 3 5 5 5 5 0 0 0 0 0 0 0 0 0 0 0 0 0 0 0 0
3 15 7 31 89 63 100 100 39 50 94 78 34 5 5 5 2 0 0 0 0 0 0 0 0 0 0 0 0 0 0 0
0 0 0 5 86 100 98 22 5 5 5 5 5 5 5 4 0 0 0 0 0 0 0 0 0 0 0 0 0 0 0 0
0 0 1 5 5 3 5 10 9 5 5 5 5 3 0 0 0 0 0 0 0 0 0 0 0 0 0 0 8 0 0 3
3 0 1 1 0 0 0 0 5 4 3 0 0 0 0 0 4 5 0 0 0 0 0 2 0 0 0 49 12 5 4 10
96 3 0 0 0 4 8 0 0 0 0 0 0 1 4 5 5 5 0 0 3 19 19 14 35 23 1 91 34 8 6 7